Time,TemperatureF,DewpointF,PressureIn,WindDirection,WindDirectionDegrees,WindSpeedMPH,WindSpeedGustMPH,Humidity,HourlyPrecipIn,Conditions,Clouds,dailyrainin,SoftwareType,DateUTC
2013-05-24 06:15:00,61.5,61.0,29.71,WNW,302,0.0,-999.0,98,-99.99,,,0.04,weatherlink.com 1.10,2013-05-24 10:15:00,
2013-05-24 06:22:00,61.5,61.0,29.71,WNW,302,0.0,-999.0,98,-99.99,,,0.04,weatherlink.com 1.10,2013-05-24 10:22:00,
2013-05-24 06:37:00,61.5,61.0,29.72,WNW,302,0.0,-999.0,98,-99.99,,,0.04,weatherlink.com 1.10,2013-05-24 10:37:00,
2013-05-24 06:52:00,61.7,61.0,29.72,WNW,302,0.0,-999.0,98,-99.99,,,0.04,weatherlink.com 1.10,2013-05-24 10:52:00,
2013-05-24 07:07:00,61.8,61.0,29.72,WNW,302,0.0,-999.0,98,-99.99,,,0.04,weatherlink.com 1.10,2013-05-24 11:07:00,
2013-05-24 07:22:00,62.0,62.0,29.73,WNW,302,0.0,-999.0,98,-99.99,,,0.04,weatherlink.com 1.10,2013-05-24 11:22:00,
2013-05-24 07:37:00,62.4,62.0,29.73,WNW,302,0.0,-999.0,99,-99.99,,,0.05,weatherlink.com 1.10,2013-05-24 11:37:00,
2013-05-24 07:52:00,62.8,62.0,29.73,WNW,302,0.0,-999.0,98,-99.99,,,0.05,weatherlink.com 1.10,2013-05-24 11:52:00,
2013-05-24 08:07:00,63.0,63.0,29.73,WNW,302,0.0,-999.0,99,-99.99,,,0.05,weatherlink.com 1.10,2013-05-24 12:07:00,
2013-05-24 08:22:00,63.0,63.0,29.74,WNW,302,0.0,-999.0,99,-99.99,,,0.05,weatherlink.com 1.10,2013-05-24 12:22:00,
2013-05-24 08:38:00,63.2,63.0,29.74,WNW,302,0.0,-999.0,98,-99.99,,,0.05,weatherlink.com 1.10,2013-05-24 12:38:00,
2013-05-24 08:53:00,63.3,63.0,29.74,WNW,302,0.0,-999.0,98,-99.99,,,0.05,weatherlink.com 1.10,2013-05-24 12:53:00,
2013-05-24 09:08:00,63.1,63.0,29.75,WNW,302,0.0,-999.0,98,-99.99,,,0.05,weatherlink.com 1.10,2013-05-24 13:08:00,
2013-05-24 09:23:00,63.1,63.0,29.74,WNW,302,0.0,-999.0,98,-99.99,,,0.05,weatherlink.com 1.10,2013-05-24 13:23:00,
2013-05-24 09:38:00,63.0,63.0,29.75,WNW,302,0.0,-999.0,98,-99.99,,,0.05,weatherlink.com 1.10,2013-05-24 13:38:00,
2013-05-24 09:53:00,63.2,63.0,29.75,WNW,302,0.0,-999.0,98,-99.99,,,0.05,weatherlink.com 1.10,2013-05-24 13:53:00,
2013-05-24 10:08:00,63.4,63.0,29.76,NNW,346,2.0,-999.0,98,-99.99,,,0.05,weatherlink.com 1.10,2013-05-24 14:08:00,
2013-05-24 10:23:00,60.3,60.0,29.77,NW,324,0.0,-999.0,97,-99.99,,,0.05,weatherlink.com 1.10,2013-05-24 14:23:00,
2013-05-24 10:38:00,59.1,58.0,29.77,WNW,298,0.0,-999.0,97,-99.99,,,0.05,weatherlink.com 1.10,2013-05-24 14:38:00,
2013-05-24 10:53:00,58.4,58.0,29.77,North,5,0.0,-999.0,97,-99.99,,,0.05,weatherlink.com 1.10,2013-05-24 14:53:00,
2013-05-24 11:08:00,57.2,56.0,29.78,WNW,291,0.0,-999.0,96,-99.99,,,0.05,weatherlink.com 1.10,2013-05-24 15:08:00,
2013-05-24 11:24:00,56.8,56.0,29.79,West,274,0.0,-999.0,97,-99.99,,,0.05,weatherlink.com 1.10,2013-05-24 15:24:00,
2013-05-24 11:39:00,56.8,56.0,29.80,NW,326,0.0,-999.0,97,-99.99,,,0.05,weatherlink.com 1.10,2013-05-24 15:39:00,
2013-05-24 11:54:00,56.3,55.0,29.80,North,355,5.0,-999.0,96,-99.99,,,0.05,weatherlink.com 1.10,2013-05-24 15:54:00,
2013-05-24 12:09:00,55.4,54.0,29.81,NNW,344,0.0,-999.0,95,-99.99,,,0.05,weatherlink.com 1.10,2013-05-24 16:09:00,
2013-05-24 12:24:00,55.5,54.0,29.81,NNW,343,8.0,-999.0,93,-99.99,,,0.05,weatherlink.com 1.10,2013-05-24 16:24:00,
2013-05-24 12:39:00,55.8,53.0,29.80,NNW,331,5.0,-999.0,91,-99.99,,,0.05,weatherlink.com 1.10,2013-05-24 16:39:00,
2013-05-24 12:54:00,56.1,53.0,29.80,NNW,341,5.0,-999.0,89,-99.99,,,0.05,weatherlink.com 1.10,2013-05-24 16:54:00,
2013-05-24 13:09:00,55.8,52.0,29.81,NNW,339,1.0,-999.0,87,-99.99,,,0.05,weatherlink.com 1.10,2013-05-24 17:09:00,
2013-05-24 13:24:00,55.5,51.0,29.82,NNW,336,6.0,-999.0,86,-99.99,,,0.05,weatherlink.com 1.10,2013-05-24 17:24:00,
2013-05-24 13:39:00,55.0,52.0,29.83,North,9,0.0,-999.0,88,-99.99,,,0.05,weatherlink.com 1.10,2013-05-24 17:39:00,
2013-05-24 13:54:00,54.1,51.0,29.82,North,5,1.0,-999.0,90,-99.99,,,0.05,weatherlink.com 1.10,2013-05-24 17:54:00,
2013-05-24 14:10:00,53.5,51.0,29.82,NNW,331,0.0,-999.0,92,-99.99,,,0.06,weatherlink.com 1.10,2013-05-24 18:10:00,
2013-05-24 14:25:00,52.8,51.0,29.82,NNW,342,2.0,-999.0,93,-99.99,,,0.06,weatherlink.com 1.10,2013-05-24 18:25:00,
2013-05-24 14:40:00,52.4,50.0,29.83,NNW,327,0.0,-999.0,92,-99.99,,,0.06,weatherlink.com 1.10,2013-05-24 18:40:00,
2013-05-24 14:55:00,52.2,50.0,29.83,NNW,327,0.0,-999.0,93,-99.99,,,0.06,weatherlink.com 1.10,2013-05-24 18:55:00,
2013-05-24 15:10:00,51.8,50.0,29.83,NNW,338,6.0,-999.0,93,-99.99,,,0.06,weatherlink.com 1.10,2013-05-24 19:10:00,
2013-05-24 15:25:00,51.2,49.0,29.84,NNW,332,5.0,-999.0,93,-99.99,,,0.06,weatherlink.com 1.10,2013-05-24 19:25:00,
2013-05-24 15:40:00,50.9,49.0,29.84,NNW,331,0.0,-999.0,94,-99.99,,,0.06,weatherlink.com 1.10,2013-05-24 19:40:00,
2013-05-24 15:55:00,51.0,49.0,29.84,NNW,327,0.0,-999.0,94,-99.99,,,0.06,weatherlink.com 1.10,2013-05-24 19:55:00,
2013-05-24 16:10:00,50.6,49.0,29.84,North,5,4.0,-999.0,93,-99.99,,,0.06,weatherlink.com 1.10,2013-05-24 20:10:00,
2013-05-24 16:26:00,50.3,48.0,29.85,NNW,327,2.0,-999.0,93,-99.99,,,0.06,weatherlink.com 1.10,2013-05-24 20:26:00,
2013-05-24 16:41:00,50.0,48.0,29.86,North,5,4.0,-999.0,93,-99.99,,,0.06,weatherlink.com 1.10,2013-05-24 20:41:00,
2013-05-24 16:56:00,50.2,49.0,29.86,NNW,344,4.0,-999.0,94,-99.99,,,0.06,weatherlink.com 1.10,2013-05-24 20:56:00,
2013-05-24 17:11:00,50.1,48.0,29.86,NW,321,0.0,-999.0,93,-99.99,,,0.07,weatherlink.com 1.10,2013-05-24 21:11:00,
2013-05-24 17:26:00,50.1,49.0,29.85,NNE,16,5.0,-999.0,94,-99.99,,,0.09,weatherlink.com 1.10,2013-05-24 21:26:00,
2013-05-24 17:41:00,49.8,49.0,29.85,NNW,341,4.0,-999.0,95,-99.99,,,0.09,weatherlink.com 1.10,2013-05-24 21:41:00,
2013-05-24 17:56:00,49.6,48.0,29.86,NNW,332,4.0,-999.0,95,-99.99,,,0.09,weatherlink.com 1.10,2013-05-24 21:56:00,
2013-05-24 18:11:00,49.3,48.0,29.86,NNE,15,1.0,-999.0,94,-99.99,,,0.09,weatherlink.com 1.10,2013-05-24 22:11:00,
2013-05-24 18:26:00,49.0,47.0,29.87,NNW,337,6.0,-999.0,93,-99.99,,,0.09,weatherlink.com 1.10,2013-05-24 22:26:00,
2013-05-24 18:41:00,48.7,47.0,29.88,North,360,2.0,-999.0,93,-99.99,,,0.09,weatherlink.com 1.10,2013-05-24 22:41:00,
2013-05-24 18:56:00,48.3,46.0,29.89,NNW,338,2.0,-999.0,92,-99.99,,,0.10,weatherlink.com 1.10,2013-05-24 22:56:00,
2013-05-24 19:12:00,48.0,46.0,29.90,North,360,4.0,-999.0,93,-99.99,,,0.11,weatherlink.com 1.10,2013-05-24 23:12:00,
2013-05-24 19:27:00,47.7,46.0,29.90,North,350,1.0,-999.0,94,-99.99,,,0.12,weatherlink.com 1.10,2013-05-24 23:27:00,
2013-05-24 19:42:00,47.4,46.0,29.90,NNW,338,0.0,-999.0,95,-99.99,,,0.13,weatherlink.com 1.10,2013-05-24 23:42:00,
2013-05-24 19:57:00,47.3,46.0,29.90,North,350,2.0,-999.0,95,-99.99,,,0.13,weatherlink.com 1.10,2013-05-24 23:57:00,
2013-05-24 20:12:00,47.1,46.0,29.91,NNW,331,2.0,-999.0,95,-99.99,,,0.13,weatherlink.com 1.10,2013-05-25 00:12:00,
2013-05-24 20:27:00,46.7,45.0,29.91,NNE,14,5.0,-999.0,94,-99.99,,,0.14,weatherlink.com 1.10,2013-05-25 00:27:00,
2013-05-24 20:42:00,46.1,45.0,29.91,NNW,342,6.0,-999.0,94,-99.99,,,0.15,weatherlink.com 1.10,2013-05-25 00:42:00,
2013-05-24 20:57:00,45.8,44.0,29.91,NNW,341,0.0,-999.0,94,-99.99,,,0.15,weatherlink.com 1.10,2013-05-25 00:57:00,
2013-05-24 21:12:00,45.4,44.0,29.90,NNE,27,5.0,-999.0,94,-99.99,,,0.15,weatherlink.com 1.10,2013-05-25 01:12:00,
2013-05-24 21:27:00,45.0,43.0,29.89,North,9,2.0,-999.0,94,-99.99,,,0.15,weatherlink.com 1.10,2013-05-25 01:27:00,
2013-05-24 21:42:00,44.9,43.0,29.90,North,350,5.0,-999.0,94,-99.99,,,0.15,weatherlink.com 1.10,2013-05-25 01:42:00,
2013-05-24 21:58:00,44.9,43.0,29.93,NNW,333,4.0,-999.0,94,-99.99,,,0.15,weatherlink.com 1.10,2013-05-25 01:58:00,
2013-05-24 22:13:00,44.9,43.0,29.94,NW,305,0.0,-999.0,94,-99.99,,,0.15,weatherlink.com 1.10,2013-05-25 02:13:00,
2013-05-24 22:28:00,44.9,43.0,29.94,NE,39,4.0,-999.0,93,-99.99,,,0.15,weatherlink.com 1.10,2013-05-25 02:28:00,
2013-05-24 22:43:00,44.7,43.0,29.92,NNW,339,5.0,-999.0,93,-99.99,,,0.15,weatherlink.com 1.10,2013-05-25 02:43:00,